Probability
0 0 0 0 0 0 0 0 0 0 0 0 0 0 0 0 0 0 0 0 0 0 0 0 0 0 0 0 0 0 0 0 0 0 0 0 0 0 0 0 0 0 0
0 0 0 0 0 0 0 0 0 0 0 0 0 0 0 0 0 0 0 0 0 0 0 0 0 0 0 0 0 0 0 0 0 0 0 0 0 0 0 0 0 0 0
0 0 0 0 0 0 0 0 0 0 0 0 0 0 0 0 0 0 0 0 0 0 0 0 0 0 0 0 0 0 0 0 0 0 0 0 0 0 0 0 0 0 0
0 0 0 0 0 0 0 0 0 0 0 0 0 0 0 0 0 0 0 0 0 0 0 0 0 0 0 0 0 0 0 0 0 0 0 0 0 0 0 0 0 0 0
0 0 0 0 0 0 0 0 0 0 0 0 0 0 0 0 0 0 0 0 0 0 0 0 0 0 0 0 0 0 0 0 0 0 0 0 0 0 0 0 0 0 0
0 0 0 0 0 0 0 0 0 0 0 0 0 0 0 0 0 0 0 0 0 0 0 0 0 0 0 0 0 0 0 0 0 0 0 0 0 0 0 0 0 0 0
0 0 0 0 0 0 0 0 0 0 0 0 0 0 0 0 0 0 0 0 0 0 0 0 0 0 0 0 0 0 0 0 0 0 0 0 0 0 0 0 0 0 0
0 0 0 0 0 0 0 0 0 0 0 0 0 0 0 0 0 0 0 0 0 0 0 0 0 0 0 0 0 0 0 0 0 0 0 0 0 0 0 0 0 0 0
0 0 0 0 0 0 0 0 0 0 0 0 0 0 0 0 0 0 0 0 0 0 0 0 0 0 0 0 0 0 0 0 0 0 0 0 0 0 0 0 0 0 0
0 0 0 0 0 0 0 0 0 0 0 0 0 0 0 0 0 0 0 0 0 0 0 0 0 0 0 0 0 0 0 0 0 0 0 0 0 0 0 0 0 0 0
0 0 0 0 0 0 0 0 0 0 0 0 0 0 0 0 0 0 0 0 0 0 0 0 0 0 0 0 0 0 0 0 0 0 0 0 0 0 0 0 0 0 0
0 0 0 0 0 0 0 0 0 0 0 0 0 0 0 0 0 0 0 0 0 0 0 0 0 0 0 0 0 0 0 0 0 0 0 0 0 0 0 0 0 0 0
0 0 0 0 0 0 0 0 0 0 0 0 0 0 0 0 0 0 0 0 0 0 0 0 0 0 0 0 0 0 0 0 0 0 0 0 0 0 0 0 0 0 0
0 0 0 0 0 0 0 0 0 0 0 0 0 0 0 0 0 0 0 0 0 0 0 0 0 0 0 0 0 0 0 0 0 0 0 0 0 0 0 0 0 0 0
0 0 0 0 0 0 0 0 0 0 0 0 0 0 0 0 0 0 0 0 0 0 0 0 0 0 0 0 0 0 0 0 0 0 0 0 0 0 0 0 0 0 0
0 0 0 0 0 0 0 0 0 0 0 0 0 0 0 0 0 0 0 0 0 0 0 0 0 0 0 0 0 0 0 0 0 0 0 0 0 0 0 0 0 0 0
0 0 0 0 0 0 0 0 0 0 0 0 0 0 0 0 0 0 0 0 0 0 0 0 0 0 0 0 0 0 0 0 0 0 0 0 0 0 0 0 0 0 0
0 0 0 0 0 0 0 0 0 0 0 0 0 0 0 0 0 0 0 0 0 0 0 0 0 0 0 0 0 0 0 0 0 0 0 0 0 0 0 0 0 0 0
0 0 0 0 0 0 0 0 0 0 0 0 0 0 0 0 0 0 0 0 0 0 0 0 0 0 0 0 0 0 0 0 0 0 0 0 0 0 0 0 0 0 0
0 0 0 0 0 0 0 0 0 0 0 0 0 0 0 0 0 0 0 0 0 0 0 0 0 0 0 0 0 0 0 0 0 0 0 0 0 0 0 0 0 0 0
0 0 0 0 0 0 0 0 0 0 0 0 0 0 0 0 0 0 0 0 0 0 0 0 0 0 0 0 0 0 0 0 0 0 0 0 0 0 0 0 0 0 0
0 0 0 0 0 0 0 0 0 0 0 0 0 0 0 0 0 0 0 0 0 0 0 0 0 0 0 0 0 0 0 0 0 0 0 0 0 0 0 0 0 0 0
0 0 0 0 0 0 0 0 0 0 0 0 0 0 0 0 0 0 0 0 0 0 0 0 0 0 0 0 0 0 0 0 0 0 0 0 0 0 0 0 0 0 0
0 0 0 0 0 0 0 0 0 0 0 0 0 0 0 0 0 0 0 0 0 0 0 0 0 0 0 0 0 0 0 0 0 0 0 0 0 0 0 0 0 0 0
0 0 0 0 0 0 0 0 0 0 0 0 0 0 0 0 0 0 0 0 0 0 0 0 0 0 0 0 0 0 0 0 0 0 0 0 0 0 0 0 0 0 0
0 0 0 0 0 0 0 0 0 0 0 0 0 0 0 0 0 0 0 0 0 0 0 0 0 0 0 0 0 0 0 0 0 0 0 0 0 0 0 0 0 0 0
Height
5559 5560 5562 5564 5567 5570 5573 5577 5581 5585 5588 5592 5596 5599 5602 5606 5609 5613 5616 5619 5622 5625 5628 5631 5634 5637 5640 5643 5646 5650 5654 5658 5663 5668 5671 5674 5677 5680 5682 5684 5687 5689 5692
5546 5547 5549 5551 5553 5555 5559 5562 5566 5569 5573 5576 5580 5584 5587 5590 5594 5597 5601 5604 5607 5610 5613 5616 5619 5622 5625 5629 5632 5636 5639 5643 5648 5653 5656 5659 5663 5665 5668 5671 5674 5676 5678
5533 5534 5536 5537 5539 5541 5544 5547 5551 5554 5558 5561 5564 5568 5572 5575 5578 5582 5585 5588 5591 5594 5597 5601 5604 5607 5611 5613 5617 5621 5625 5629 5633 5638 5641 5645 5648 5651 5654 5657 5659 5662 5664
5520 5521 5522 5524 5526 5528 5530 5533 5535 5539 5542 5545 5548 5552 5556 5559 5562 5565 5568 5571 5575 5578 5581 5585 5588 5592 5595 5598 5602 5606 5610 5614 5618 5622 5626 5630 5633 5636 5639 5642 5645 5648 5650
5508 5508 5509 5510 5512 5514 5516 5518 5521 5523 5526 5530 5533 5536 5539 5542 5545 5548 5552 5555 5559 5562 5565 5569 5573 5576 5579 5582 5586 5590 5594 5598 5602 5607 5611 5615 5618 5621 5625 5627 5630 5632 5635
5495 5496 5496 5497 5498 5500 5502 5504 5506 5508 5511 5514 5517 5520 5523 5526 5529 5532 5535 5539 5542 5546 5549 5553 5556 5560 5563 5567 5570 5574 5579 5583 5587 5591 5595 5599 5603 5606 5609 5612 5614 5617 5621
5483 5483 5483 5483 5484 5486 5487 5489 5491 5493 5495 5498 5501 5503 5506 5509 5512 5515 5518 5522 5525 5529 5532 5536 5540 5543 5547 5551 5555 5558 5563 5567 5571 5576 5579 5583 5587 5591 5594 5597 5599 5601 5605
5470 5470 5470 5470 5471 5472 5473 5474 5476 5478 5480 5482 5485 5488 5490 5493 5496 5499 5502 5505 5509 5512 5516 5519 5523 5527 5531 5535 5539 5543 5547 5552 5556 5560 5564 5568 5571 5574 5577 5580 5582 5585 5588
5457 5457 5457 5457 5457 5458 5459 5460 5462 5463 5465 5467 5469 5472 5475 5477 5480 5482 5485 5488 5492 5496 5499 5503 5507 5511 5516 5519 5523 5528 5532 5536 5539 5543 5547 5550 5554 5558 5561 5563 5566 5569 5572
5444 5444 5444 5444 5445 5445 5446 5447 5448 5449 5450 5451 5454 5456 5459 5462 5463 5466 5468 5472 5476 5480 5484 5488 5492 5496 5499 5503 5507 5512 5516 5521 5524 5527 5531 5534 5538 5541 5544 5546 5549 5552 5555
5432 5432 5431 5431 5432 5432 5433 5434 5435 5436 5436 5438 5440 5442 5444 5446 5448 5450 5452 5455 5459 5463 5467 5472 5476 5480 5483 5487 5491 5496 5500 5504 5508 5511 5514 5518 5522 5525 5527 5530 5532 5535 5539
5420 5420 5419 5419 5419 5419 5420 5421 5421 5422 5423 5424 5425 5427 5429 5431 5432 5434 5437 5440 5443 5447 5452 5456 5460 5464 5468 5471 5475 5480 5483 5487 5491 5495 5499 5502 5506 5509 5511 5513 5516 5518 5521
5409 5408 5408 5407 5407 5407 5407 5408 5408 5408 5409 5410 5411 5413 5415 5416 5418 5420 5422 5425 5428 5432 5437 5441 5444 5448 5452 5455 5460 5463 5467 5471 5475 5479 5483 5486 5489 5492 5494 5497 5499 5502 5504
5398 5397 5396 5396 5395 5395 5395 5395 5395 5395 5396 5396 5397 5399 5400 5402 5404 5406 5408 5411 5414 5418 5422 5425 5429 5432 5436 5440 5444 5447 5451 5455 5459 5463 5466 5469 5472 5475 5478 5481 5483 5485 5488
5387 5386 5385 5384 5384 5383 5383 5382 5382 5382 5382 5383 5384 5385 5386 5388 5390 5392 5394 5397 5400 5404 5407 5411 5414 5418 5421 5424 5428 5432 5435 5439 5442 5446 5450 5453 5456 5459 5462 5464 5467 5469 5471
5375 5374 5374 5373 5372 5372 5371 5371 5369 5370 5370 5370 5370 5371 5373 5375 5376 5379 5381 5384 5387 5390 5393 5397 5400 5403 5407 5410 5413 5417 5420 5423 5427 5430 5434 5437 5440 5443 5446 5448 5451 5453 5456
5364 5363 5362 5361 5361 5360 5360 5359 5359 5358 5357 5357 5358 5359 5360 5362 5364 5366 5368 5371 5373 5376 5379 5383 5386 5389 5392 5396 5399 5402 5405 5409 5412 5415 5418 5422 5424 5427 5430 5433 5435 5438 5440
5352 5351 5351 5350 5349 5349 5348 5348 5347 5347 5347 5346 5346 5347 5348 5350 5352 5354 5356 5358 5361 5363 5366 5369 5372 5375 5378 5382 5385 5388 5391 5394 5397 5401 5404 5407 5410 5412 5415 5418 5420 5423 5425
5342 5341 5340 5339 5338 5338 5337 5337 5336 5336 5336 5336 5336 5336 5337 5338 5340 5342 5343 5346 5348 5351 5353 5356 5358 5362 5365 5368 5371 5374 5377 5381 5384 5386 5389 5392 5395 5398 5401 5403 5406 5407 5410
5332 5331 5330 5329 5328 5327 5327 5326 5326 5325 5325 5325 5325 5325 5326 5327 5328 5330 5331 5334 5336 5338 5340 5343 5345 5348 5351 5355 5358 5361 5364 5367 5370 5373 5376 5379 5381 5384 5386 5389 5391 5393 5395
5322 5321 5320 5319 5318 5317 5316 5316 5315 5315 5315 5315 5315 5315 5315 5316 5318 5319 5320 5322 5324 5326 5328 5330 5333 5335 5338 5341 5345 5348 5351 5354 5356 5359 5362 5365 5367 5370 5372 5375 5377 5379 5381
5313 5312 5311 5309 5308 5307 5306 5305 5305 5305 5304 5304 5305 5305 5305 5306 5307 5308 5310 5311 5312 5314 5316 5318 5320 5323 5326 5329 5331 5334 5337 5340 5343 5345 5348 5351 5353 5356 5358 5361 5363 5365 5367
5304 5302 5301 5300 5299 5298 5297 5296 5295 5295 5295 5295 5295 5295 5295 5296 5297 5298 5299 5300 5301 5302 5304 5306 5308 5311 5314 5317 5319 5322 5324 5327 5329 5332 5334 5337 5339 5342 5345 5347 5349 5351 5353
5294 5293 5292 5291 5289 5288 5287 5286 5285 5285 5285 5285 5285 5285 5285 5285 5286 5287 5288 5289 5290 5292 5293 5295 5297 5299 5302 5305 5307 5310 5312 5314 5317 5319 5321 5324 5326 5329 5331 5334 5336 5338 5340
5285 5284 5283 5281 5280 5279 5278 5276 5276 5275 5275 5274 5274 5274 5275 5275 5275 5276 5277 5278 5279 5281 5282 5284 5286 5288 5290 5292 5295 5297 5300 5302 5304 5306 5309 5311 5314 5316 5318 5321 5323 5325 5327
5276 5275 5273 5272 5270 5269 5268 5266 5265 5264 5264 5264 5263 5263 5263 5264 5264 5265 5266 5267 5269 5270 5272 5273 5275 5277 5278 5281 5283 5285 5287 5289 5292 5294 5296 5299 5301 5303 5306 5308 5310 5312 5314
Wind_Speed
48 49 50 51 53 55 56 56 56 57 57 57 58 57 57 58 59 58 58 59 58 57 57 56 55 55 55 54 53 53 54 54 53 52 51 51 51 50 50 50 50 49 49
46 47 48 48 51 53 55 56 57 57 57 57 58 59 58 58 60 61 60 60 59 59 58 58 56 55 55 55 54 55 55 54 53 53 52 51 51 50 50 51 51 51 51
45 46 47 48 49 50 53 54 55 56 56 57 58 59 59 59 61 61 62 62 60 60 60 59 57 57 55 55 56 56 56 56 56 55 54 53 52 51 51 51 51 51 52
44 45 46 47 48 49 50 51 53 54 54 55 56 58 59 60 61 60 61 61 61 60 60 59 59 58 57 57 57 57 56 56 56 56 56 55 54 53 53 52 52 52 52
42 42 44 45 47 49 50 51 52 53 54 55 55 56 57 58 59 59 59 60 60 60 59 59 60 59 59 58 58 58 57 57 56 56 57 56 55 54 54 54 54 53 53
42 42 44 45 46 48 50 51 52 52 54 55 55 55 55 56 57 58 59 59 59 59 60 59 60 60 60 59 59 58 58 57 57 56 56 56 55 54 54 54 54 54 54
41 43 44 45 46 48 49 50 51 51 52 54 54 54 55 55 55 56 58 59 59 59 59 58 58 59 59 59 58 57 56 57 57 56 56 56 55 54 54 54 55 55 55
41 42 43 44 45 46 47 48 49 49 51 53 53 54 54 54 55 56 57 59 59 58 58 58 58 58 58 58 58 57 56 56 56 57 57 56 56 55 55 55 56 56 56
41 42 42 42 43 44 46 47 47 48 49 51 52 53 54 53 54 55 56 57 58 58 59 58 56 56 56 56 57 58 57 56 56 55 56 57 57 57 57 57 58 57 57
40 40 41 41 42 42 43 44 45 46 48 49 50 51 52 53 53 54 54 55 56 57 58 57 55 55 55 56 56 57 57 57 56 55 55 56 56 57 58 58 58 58 58
39 39 39 40 41 41 42 42 43 44 45 46 48 48 50 51 52 52 52 52 53 54 55 56 56 55 55 56 57 57 57 57 56 55 55 55 56 57 57 57 58 58 58
37 38 38 38 40 40 41 42 43 44 44 44 45 46 47 49 50 50 51 51 52 52 53 54 55 56 56 56 56 56 57 57 57 57 56 55 56 56 57 57 57 57 58
35 36 36 37 38 40 41 41 42 43 43 43 44 45 45 46 47 48 48 49 50 50 51 52 53 55 56 56 56 56 56 57 58 57 56 56 56 56 57 56 56 56 56
34 34 35 35 36 38 38 39 40 41 42 42 43 43 44 45 45 46 47 47 48 48 49 49 50 52 53 54 55 56 56 56 57 57 56 56 56 56 56 56 56 55 55
35 35 34 35 35 36 37 37 39 40 41 41 41 42 43 43 44 44 45 46 46 47 48 48 48 48 49 50 51 53 53 54 55 56 55 54 53 54 54 54 54 53 53
35 35 35 35 35 35 36 36 37 38 38 39 39 40 41 41 42 43 43 43 45 46 46 46 47 47 47 48 49 50 51 52 53 54 53 53 52 52 52 51 52 52 52
34 34 34 34 34 34 34 35 35 35 36 37 37 37 37 38 39 40 41 42 43 45 45 45 46 46 47 47 48 48 49 50 51 51 51 50 50 51 52 51 51 51 51
32 32 32 32 32 32 33 33 33 34 34 35 35 35 36 36 38 38 39 41 42 43 44 44 44 45 45 46 46 47 47 48 49 49 49 49 49 50 50 50 49 49 49
30 30 30 31 31 31 31 31 32 32 32 33 33 34 35 36 37 39 39 39 40 42 42 42 43 43 44 44 44 45 46 46 46 47 48 48 48 48 48 49 49 48 48
29 29 30 30 30 30 30 31 31 31 31 31 32 32 33 34 35 37 38 39 40 40 41 41 42 42 43 43 43 44 45 45 45 45 46 46 46 46 46 47 47 47 47
29 29 29 29 30 30 30 30 31 31 31 30 30 30 31 31 32 34 35 37 38 38 39 39 40 41 42 42 43 44 44 45 45 45 45 45 45 46 45 45 45 45 45
28 28 28 29 29 29 29 29 29 29 29 29 29 29 30 30 31 32 33 34 35 36 36 37 38 39 40 40 41 41 42 43 43 44 44 45 45 45 45 45 45 45 45
27 27 28 28 28 28 28 28 28 28 28 29 29 30 30 30 31 32 32 33 33 33 34 35 36 38 39 39 40 40 40 40 41 42 42 43 43 43 44 43 43 43 43
27 27 27 27 27 28 28 28 28 29 29 29 29 30 30 31 31 31 31 31 32 32 32 33 34 36 37 38 38 38 38 39 40 40 41 41 41 41 42 42 42 42 41
27 27 27 28 28 28 29 29 29 29 29 29 29 30 31 31 31 31 31 31 31 32 32 33 33 34 35 36 37 37 37 38 38 39 40 40 40 40 40 40 40 40 40
28 28 28 29 29 29 29 29 29 29 29 29 30 30 30 30 30 30 30 31 31 31 32 32 33 33 33 34 35 37 37 37 38 38 38 38 38 38 38 39 39 39 39
Wind_Direction
261 259 258 257 255 253 252 251 251 252 252 252 252 251 252 251 250 251 253 254 255 254 255 256 255 255 254 254 253 252 250 251 252 252 253 254 254 254 255 256 257 258 258
262 259 258 258 256 254 252 252 251 253 253 252 252 251 252 252 252 252 253 254 255 255 255 255 255 255 254 253 253 252 251 251 252 253 253 254 254 255 256 256 257 257 258
263 260 259 258 257 255 254 254 252 253 253 253 253 252 252 253 253 253 253 254 255 255 255 254 254 254 253 253 253 252 251 251 252 253 254 255 255 256 256 257 257 258 258
264 262 261 259 257 256 255 254 254 253 253 253 253 253 253 253 254 255 255 255 255 254 254 254 253 253 253 253 253 252 252 252 253 254 254 255 255 256 257 258 258 258 259
265 264 262 260 258 256 255 254 254 254 253 253 253 253 253 254 254 255 255 256 254 254 254 254 253 253 253 254 254 253 253 253 254 254 254 254 254 255 258 258 257 258 258
266 264 263 261 259 257 256 255 254 254 253 253 253 254 255 255 255 255 255 254 254 254 255 254 253 252 253 254 254 253 252 253 254 254 254 254 254 256 257 257 258 257 258
268 265 264 262 260 258 256 256 256 255 254 253 253 254 254 255 256 255 254 254 254 254 255 254 253 252 253 253 253 252 252 252 253 253 254 254 254 255 256 256 257 257 259
269 267 265 263 262 259 257 257 257 256 255 254 254 255 255 256 256 255 255 254 254 254 254 254 253 253 252 252 251 251 251 252 252 253 254 253 254 255 256 257 257 258 259
269 268 266 264 263 262 260 259 259 258 258 257 256 255 255 256 257 256 255 255 254 253 253 253 252 252 251 251 251 251 252 252 253 254 254 254 254 256 256 257 259 259 259
271 269 267 265 264 263 262 261 260 261 261 260 258 257 256 257 257 257 256 256 254 253 252 251 250 251 251 251 251 252 252 252 253 253 254 254 255 257 258 258 259 259 260
271 270 269 267 266 264 263 263 262 263 263 262 259 258 258 257 257 257 256 255 253 251 250 250 250 251 252 252 252 252 252 251 252 253 253 254 256 258 258 259 259 259 260
271 270 269 268 267 266 266 266 265 264 263 262 261 259 259 258 257 257 256 255 253 252 250 250 250 251 252 252 252 251 251 252 252 253 253 254 256 257 257 258 259 259 260
272 271 270 270 270 269 268 267 266 265 264 263 262 260 259 258 257 257 256 254 253 252 251 250 251 251 252 252 252 252 252 252 253 253 254 255 256 256 256 257 258 259 260
275 274 273 272 271 271 270 268 267 266 265 264 262 260 259 258 257 256 255 254 253 252 252 251 250 250 251 252 252 252 252 253 253 253 253 255 256 255 256 257 258 259 260
276 276 274 274 274 273 272 271 269 268 267 266 264 261 259 257 256 256 255 253 252 252 251 250 250 250 251 252 251 252 252 252 252 252 253 254 255 255 255 256 257 258 258
276 275 274 275 275 274 273 272 271 269 267 266 265 262 259 258 256 255 253 253 252 252 252 251 250 250 251 252 252 252 252 252 252 252 252 253 253 254 255 256 257 257 259
277 276 275 275 275 273 273 272 271 271 270 268 265 261 259 258 257 256 255 254 254 254 254 253 252 251 251 252 251 251 251 252 252 252 253 253 253 253 254 256 257 258 259
278 278 277 276 276 275 274 274 273 272 270 268 266 263 260 259 257 257 257 256 255 255 254 253 252 252 252 252 252 251 251 250 251 252 252 253 253 254 255 256 257 257 258
279 278 277 277 277 276 275 275 275 273 270 268 267 264 262 260 258 257 257 257 256 256 254 253 252 251 251 252 251 250 249 250 251 252 253 253 254 254 255 255 256 257 258
280 280 279 279 278 277 276 275 275 274 272 270 268 266 263 261 258 257 257 257 257 257 256 254 253 253 252 251 251 250 250 251 252 252 252 252 253 254 255 255 256 257 257
281 280 281 280 279 278 277 275 275 274 273 272 270 267 265 262 259 258 257 257 257 257 256 255 254 254 252 251 252 252 252 252 253 252 252 253 254 254 254 255 256 256 257
281 281 281 281 280 279 278 277 275 274 273 272 269 267 266 264 262 260 260 259 258 256 255 255 254 253 251 251 252 253 253 253 253 252 253 253 254 255 255 256 256 256 257
281 281 281 281 280 280 278 277 275 274 274 273 271 269 267 266 264 263 261 260 258 257 256 256 255 253 251 251 251 252 253 253 253 253 253 253 253 254 255 256 256 256 257
283 282 282 281 280 279 278 277 276 274 273 273 272 270 268 267 266 264 261 259 257 257 256 255 254 252 251 251 251 252 253 253 253 253 253 253 253 254 255 256 256 256 257
283 283 283 283 282 281 279 277 276 276 274 273 272 271 269 268 266 263 261 259 257 256 255 255 254 253 252 252 252 252 253 253 253 253 253 253 253 254 255 255 256 257 258
283 283 284 284 283 282 281 279 277 276 275 274 273 272 270 268 265 263 261 259 257 256 255 254 254 254 254 254 253 252 253 253 253 253 253 253 253 254 255 256 256 256 257